Home > Weather > Linköping > Past weeks

Flag for Sweden Weather for the Past 2 Weeks in Linköping, Sweden

Now
52 °F

Passing clouds.


Feels Like: 48 °F
Forecast: 43 / 58 °F
Wind: 12 mph from South

Location: Linkoping / Saab

Current Time: Apr 29, 2016 at 2:48:03 PM

Latest Report: Apr 29, 2016 at 2:20 PM


Visibility: N/A

Pressure: 30.09 "Hg

Humidity: 44%

Dew Point: 30 °F

Location of LinköpingLocation

Historic Weather in Linköping — Graph

°F

Linköping Temperature Yesterday

Maximum temperature yesterday: 41 °F (at 9:20 AM)
Minimum temperature yesterday: 32 °F (at 4:50 AM)
Average temperature yesterday: 38 °F

High & Low Weather Summary for the Past Weeks

 TemperatureHumidityPressure
High55 °F (Apr 20, 3:50 PM)100% (Apr 17, 3:50 AM)30.15 "Hg (Apr 17, 3:50 AM)
Low28 °F (Apr 25, 4:50 AM)24% (Apr 20, 2:50 PM)29.39 "Hg (Apr 17, 10:20 AM)
Average42 °F72%29.73 "Hg
* Reported Apr 14 1:20 PM — Apr 29 1:20 PM, Linköping, Weather by CustomWeather, © 2016

Note: Actual official high and low records may vary slightly from our data, if they occured in-between our weather recording intervals... More about our weather records

Advertising

Linköping Weather History for the Previous 24 Hours

Scroll right to see more
 ConditionsComfort  
Time TempWeatherWind HumidityBarometerVisibility
1:20 PM
Fri, Apr 29
48 °FPartly sunny.9 mph50%30.07 "HgN/A
12:50 PM48 °FBroken clouds.10 mph50%30.07 "HgN/A
12:20 PM50 °FScattered clouds.10 mph50%30.07 "HgN/A
11:50 AM48 °FScattered clouds.14 mph54%30.04 "HgN/A
11:20 AM46 °FScattered clouds.13 mph57%30.04 "HgN/A
10:50 AM45 °FScattered clouds.13 mph71%30.04 "HgN/A
10:20 AM43 °FBroken clouds.10 mph81%30.01 "HgN/A
9:50 AM45 °FBroken clouds.10 mph76%30.01 "HgN/A
9:20 AM43 °FPartly sunny.13 mph81%29.98 "HgN/A
8:50 AM43 °FScattered clouds.12 mph81%29.95 "HgN/A
8:20 AM43 °FPartly sunny.10 mph81%29.95 "HgN/A
7:50 AM41 °FPartly sunny.12 mph87%29.92 "HgN/A
7:20 AM39 °FBroken clouds.9 mph93%29.92 "HgN/A
6:50 AM39 °FPartly sunny.8 mph93%29.89 "HgN/A
6:20 AM39 °FPartly sunny.8 mph93%29.89 "HgN/A
5:50 AM37 °FPartly cloudy.7 mph93%29.86 "HgN/A
5:20 AM37 °FPartly cloudy.8 mph93%29.86 "HgN/A
4:50 AM37 °FPassing clouds.8 mph93%29.83 "HgN/A
4:20 AM37 °FPartly cloudy.7 mph93%29.83 "HgN/A
3:50 AM36 °FPassing clouds.8 mph100%29.83 "HgN/A
3:20 AM36 °FPassing clouds.6 mph100%29.80 "HgN/A
2:50 AM36 °FPassing clouds.8 mph100%29.80 "HgN/A
2:20 AM36 °FPassing clouds.8 mph100%29.77 "HgN/A
1:50 AM36 °FChilly.7 mph100%29.77 "HgN/A
1:20 AM37 °FPassing clouds.7 mph93%29.77 "HgN/A
12:20 AM37 °FPassing clouds.9 mph100%29.77 "HgN/A
11:50 PM
Thu, Apr 28
39 °FPartly cloudy.6 mph93%29.77 "HgN/A
11:20 PM39 °FOvercast.8 mph93%29.74 "HgN/A
10:50 PM39 °FMostly cloudy.7 mph93%29.74 "HgN/A
10:20 PM39 °FPassing clouds.7 mph93%29.74 "HgN/A
9:50 PM39 °FPassing clouds.6 mph93%29.74 "HgN/A
9:20 PM39 °FPassing clouds.5 mph93%29.74 "HgN/A
8:50 PM39 °FPassing clouds.3 mph93%29.77 "HgN/A
8:20 PM39 °FLight rain. Scattered clouds.3 mph93%29.77 "HgN/A
7:50 PM37 °FLight rain. Broken clouds.No wind100%29.77 "HgN/A
7:20 PM37 °FDrizzle. Broken clouds.No wind100%29.77 "HgN/A
6:50 PM37 °FLight rain. Low clouds.2 mph100%29.77 "HgN/A
6:20 PM39 °FLight rain. Broken clouds.7 mph93%29.77 "HgN/A
5:50 PM39 °FRain. Broken clouds.7 mph93%29.77 "HgN/A
5:20 PM39 °FLight rain. Broken clouds.7 mph93%29.77 "HgN/A
4:50 PM39 °FLight rain. Broken clouds.7 mph93%29.77 "HgN/A
4:20 PM41 °FDrizzle. Broken clouds.8 mph87%29.80 "HgN/A
3:50 PM41 °FLight rain. Broken clouds.8 mph93%29.80 "HgN/A
3:20 PM41 °FLight rain. Broken clouds.6 mph93%29.80 "HgN/A
2:20 PM39 °FLight rain. Broken clouds.8 mph93%29.83 "HgN/A
Weather by CustomWeather, © 2016

See weather overviewHow to use our weather pages